Regional Weather Roundup
Issued by NWS Cleveland, OH

Home | Current Version | Previous Version | Text Only | Print | Product List | Glossary Off
Versions: 1 2 3 4 5 6 7 8 9 10 11 12 13 14 15 16 17 18 19 20 21 22 23 24 25 26 27 28 29 30 31 32 33 34 35 36 37 38 39 40 41 42 43 44 45 46 47 48 49 50

000
ASUS41 KCLE 211102
RWRCLE
OHIO REGIONAL WEATHER ROUNDUP
NATIONAL WEATHER SERVICE CLEVELAND, OH
600 AM EST TUE FEB 21 2017

NOTE: "FAIR" INDICATES FEW OR NO CLOUDS BELOW 12,000 FEET WITH NO
SIGNIFICANT WEATHER AND/OR OBSTRUCTIONS TO VISIBILITY.

OHZ001>008-015>018-024>027-034-035-043-044-211200-
   NORTHWEST OHIO

CITY           SKY/WX    TMP DP  RH WIND       PRES   REMARKS
DEFIANCE       CLOUDY    39  35  86 CALM      29.99S
FINDLAY        CLOUDY    49  39  68 S9        29.98F
TOLEDO EXPRESS CLOUDY    39  35  86 CALM      29.99R
TOLEDO EXEC    CLOUDY    38  35  89 CALM      30.00S
LIMA           CLOUDY    51  41  68 S13       29.99S
$$

OHZ009>014-019>023-028>033-038-089-211200-
   NORTHEAST OHIO

CITY           SKY/WX    TMP DP  RH WIND       PRES   REMARKS
CLE-HOPKINS    CLOUDY    51  32  48 S13       30.03F
CLE-LAKEFRONT  CLOUDY    51  31  46 S17       30.00F
CUY CO. ARPT   NOT AVBL
LORAIN-ELYRIA  PTCLDY    46  33  60 S12       30.01F
ASHTABULA      MOCLDY    47  31  53 S13       30.07R
AKRON-CANTON   CLOUDY    50  32  50 SE9       30.03F
WOOSTER        CLOUDY    41  35  79 S3        30.05S
MANSFIELD      CLOUDY    50  36  58 S10       30.02F
YOUNGSTOWN     CLOUDY    47  30  51 SE10      30.07R
$$

OHZ042-051>053-060>062-070>072-077>081-211200-
  SOUTHWEST OHIO

CITY           SKY/WX    TMP DP  RH WIND       PRES   REMARKS
CINC-COVINGTON MOCLDY    50  41  71 S8        30.01S
CINC-LUNKEN    MOCLDY    43  41  93 CALM      30.04R
HAMILTON       CLOUDY    47  41  80 E3        30.03R
DAYTON         CLOUDY    50  40  68 S8        30.02R
WRIGHT-PAT AFB PTCLDY    47  44  87 SW3       30.01R
DAYTON GENERAL CLOUDY    53  40  61 S9        30.00F
WILMINGTON     CLOUDY    50  40  68 S5        30.02S
$$

OHZ036-037-039>041-045>050-054>059-063>069-073>076-082>088-211200-
  CENTRAL AND SOUTHEAST OHIO

CITY           SKY/WX    TMP DP  RH WIND       PRES   REMARKS
COLUMBUS       CLOUDY    51  37  58 SE5       30.02F
OSU AIRPORT    PTCLDY    46  39  76 E5        30.01F
BOLTON FIELD   PTCLDY    43  39  87 SE3       30.03S
RICKENBACK AFB PTCLDY    41  40  93 CALM      30.03S
NEWARK         CLOUDY    40  37  89 CALM      30.03F
MARION         CLOUDY    48  37  65 S10       30.02S
LANCASTER      PTCLDY    47  40  76 SE7       30.03F
ZANESVILLE     CLOUDY    42  36  79 CALM      30.05F
NEW PHILLY     NOT AVBL
$$



USA.gov is the U.S. government's official web portal to all federal, state and local government web resources and services.